Location: Unspecified
(47.9110°N, 14.3980°E)
Time: 10:41:53
(UTC+00:00)

Cosmos 2322 Rocket - Pass Details

Date: 06 August 2020
Orbit: 831 x 852 km, 71.0° (Epoch: 20 September)

Event Time Altitude Azimuth Distance (km) Brightness Sun altitude
Rises 20:42:43 0° 336° (NNW) 3,416 6.9 -18.0°
Reaches altitude 10° 20:45:27 10° 347° (NNW) 2,480 5.7 -18.2°
Maximum altitude 20:50:30 31° 49° (NE) 1,441 3.4 -18.7°
Enters shadow 20:53:30 20° 97° (E) 1,880 3.6 -19.0°
